{"data":{"norad_id":67672,"epoch":"2026-09-19T19:19:30.766944Z","epoch_age_seconds":129114,"freshness":"FRESH","line1":"1 67672U 26022AA  26262.80521721  .00021108  00000+0  65404-3 0  9997","line2":"2 67672  97.2849 294.4246 0001863  98.5948 261.5506 15.33457815 35321","mean_motion":15.33457815,"eccentricity":0.0001863,"inclination_deg":97.2849,"raan_deg":294.4246,"arg_perigee_deg":98.5948,"mean_anomaly_deg":261.5506,"bstar":0.00065404,"rev_number":3532,"period_min":93.905419889232,"perigee_km":464.23007580655,"apogee_km":466.78001683301,"semimajor_km":6843.6420463198,"source":"CELESTRAK","updated_at":"2026-09-20T09:00:43.625400Z"}}